Time,TemperatureF,DewpointF,PressureIn,WindDirection,WindDirectionDegrees,WindSpeedMPH,WindSpeedGustMPH,Humidity,HourlyPrecipIn,Conditions,Clouds,dailyrainin,SoftwareType,DateUTC
2013-02-07 00:00:00,27.0,11.3,30.29,West,270,0.0,9.0,51,0.00,,,0.04,Weather View 32 v70,2013-02-07 05:00:00,
2013-02-07 00:05:00,27.0,6.9,30.29,SW,225,0.0,9.0,42,0.00,,,0.00,Weather View 32 v70,2013-02-07 05:05:00,
2013-02-07 00:10:00,27.0,7.5,30.30,SW,225,0.0,9.0,43,0.00,,,0.00,Weather View 32 v70,2013-02-07 05:10:00,
2013-02-07 00:15:00,27.0,11.3,30.30,WSW,248,0.0,9.0,51,0.00,,,0.00,Weather View 32 v70,2013-02-07 05:15:00,
2013-02-07 00:20:00,27.0,11.3,30.30,South,180,0.0,7.0,51,0.00,,,0.00,Weather View 32 v70,2013-02-07 05:20:00,
2013-02-07 00:25:00,27.0,5.3,30.30,West,270,2.0,7.0,39,0.00,,,0.00,Weather View 32 v70,2013-02-07 05:25:00,
2013-02-07 00:30:00,27.0,6.4,30.30,SW,225,4.0,7.0,41,0.00,,,0.00,Weather View 32 v70,2013-02-07 05:30:00,
2013-02-07 00:35:00,26.0,5.0,30.30,South,180,0.0,7.0,40,0.00,,,0.00,Weather View 32 v70,2013-02-07 05:35:00,
2013-02-07 00:40:00,26.0,4.4,30.31,WSW,248,2.0,7.0,39,0.00,,,0.00,Weather View 32 v70,2013-02-07 05:40:00,
2013-02-07 00:45:00,26.0,4.4,30.31,West,270,0.0,7.0,39,0.00,,,0.00,Weather View 32 v70,2013-02-07 05:45:00,
2013-02-07 00:50:00,26.0,5.5,30.30,WNW,292,0.0,7.0,41,0.00,,,0.00,Weather View 32 v70,2013-02-07 05:50:00,
2013-02-07 00:55:00,26.0,9.9,30.30,NW,315,0.0,7.0,50,0.00,,,0.00,Weather View 32 v70,2013-02-07 05:55:00,
2013-02-07 01:00:00,26.0,10.3,30.30,WSW,248,0.0,7.0,51,0.00,,,0.00,Weather View 32 v70,2013-02-07 06:00:00,
2013-02-07 01:05:00,26.0,6.6,30.30,WSW,248,0.0,7.0,43,0.00,,,0.00,Weather View 32 v70,2013-02-07 06:05:00,
2013-02-07 01:10:00,26.0,10.3,30.31,SW,225,0.0,7.0,51,0.00,,,0.00,Weather View 32 v70,2013-02-07 06:10:00,
2013-02-07 01:15:00,26.0,8.0,30.31,West,270,0.0,5.0,46,0.00,,,0.00,Weather View 32 v70,2013-02-07 06:15:00,
2013-02-07 01:20:00,25.0,5.1,30.31,West,270,0.0,5.0,42,0.00,,,0.00,Weather View 32 v70,2013-02-07 06:20:00,
2013-02-07 01:25:00,25.0,5.1,30.31,West,270,0.0,5.0,42,0.00,,,0.00,Weather View 32 v70,2013-02-07 06:25:00,
2013-02-07 01:30:00,25.0,9.0,30.31,South,180,0.0,5.0,50,0.00,,,0.00,Weather View 32 v70,2013-02-07 06:30:00,
2013-02-07 01:35:00,25.0,10.3,30.32,West,270,0.0,4.0,53,0.00,,,0.00,Weather View 32 v70,2013-02-07 06:35:00,
2013-02-07 01:40:00,25.0,10.3,30.32,West,270,0.0,4.0,53,0.00,,,0.00,Weather View 32 v70,2013-02-07 06:40:00,
2013-02-07 01:45:00,24.0,8.9,30.32,NW,315,0.0,3.0,52,0.00,,,0.00,Weather View 32 v70,2013-02-07 06:45:00,
2013-02-07 01:50:00,24.0,9.8,30.32,WSW,248,0.0,3.0,54,0.00,,,0.00,Weather View 32 v70,2013-02-07 06:50:00,
2013-02-07 01:55:00,24.0,11.0,30.33,SW,225,0.0,3.0,57,0.00,,,0.00,Weather View 32 v70,2013-02-07 06:55:00,
2013-02-07 02:00:00,24.0,9.3,30.33,WSW,248,0.0,3.0,53,0.00,,,0.00,Weather View 32 v70,2013-02-07 07:00:00,
2013-02-07 02:05:00,24.0,5.7,30.33,WSW,248,0.0,3.0,45,0.00,,,0.00,Weather View 32 v70,2013-02-07 07:05:00,
2013-02-07 02:10:00,24.0,8.5,30.32,West,270,0.0,3.0,51,0.00,,,0.00,Weather View 32 v70,2013-02-07 07:10:00,
2013-02-07 02:15:00,23.0,9.6,30.33,WSW,248,0.0,3.0,56,0.00,,,0.00,Weather View 32 v70,2013-02-07 07:15:00,
2013-02-07 02:20:00,23.0,4.8,30.33,West,270,0.0,0.0,45,0.00,,,0.00,Weather View 32 v70,2013-02-07 07:20:00,
2013-02-07 02:25:00,23.0,9.2,30.33,WNW,292,0.0,0.0,55,0.00,,,0.00,Weather View 32 v70,2013-02-07 07:25:00,
2013-02-07 02:30:00,23.0,8.4,30.33,NW,315,0.0,0.0,53,0.00,,,0.00,Weather View 32 v70,2013-02-07 07:30:00,
2013-02-07 02:35:00,23.0,8.4,30.34,WSW,248,0.0,0.0,53,0.00,,,0.00,Weather View 32 v70,2013-02-07 07:35:00,
2013-02-07 02:40:00,22.0,7.1,30.34,NW,315,0.0,0.0,52,0.00,,,0.00,Weather View 32 v70,2013-02-07 07:40:00,
2013-02-07 02:45:00,22.0,5.8,30.34,WSW,248,0.0,0.0,49,0.00,,,0.00,Weather View 32 v70,2013-02-07 07:45:00,
2013-02-07 02:50:00,22.0,8.7,30.34,WSW,248,0.0,0.0,56,0.00,,,0.00,Weather View 32 v70,2013-02-07 07:50:00,
2013-02-07 02:55:00,22.0,8.7,30.35,NNW,338,0.0,0.0,56,0.00,,,0.00,Weather View 32 v70,2013-02-07 07:55:00,
2013-02-07 03:00:00,22.0,8.7,30.35,NW,315,0.0,0.0,56,0.00,,,0.00,Weather View 32 v70,2013-02-07 08:00:00,
2013-02-07 03:05:00,22.0,5.3,30.35,WNW,292,0.0,0.0,48,0.00,,,0.00,Weather View 32 v70,2013-02-07 08:05:00,
2013-02-07 03:10:00,22.0,5.8,30.35,NW,315,0.0,0.0,49,0.00,,,0.00,Weather View 32 v70,2013-02-07 08:10:00,
2013-02-07 03:15:00,22.0,5.8,30.35,WSW,248,0.0,0.0,49,0.00,,,0.00,Weather View 32 v70,2013-02-07 08:15:00,
2013-02-07 03:20:00,21.0,8.9,30.36,SSW,202,0.0,0.0,59,0.00,,,0.00,Weather View 32 v70,2013-02-07 08:20:00,
2013-02-07 03:25:00,21.0,9.7,30.36,South,180,0.0,0.0,61,0.00,,,0.00,Weather View 32 v70,2013-02-07 08:25:00,
2013-02-07 03:30:00,21.0,8.5,30.36,South,180,0.0,0.0,58,0.00,,,0.00,Weather View 32 v70,2013-02-07 08:30:00,
2013-02-07 03:35:00,21.0,8.9,30.36,NW,315,0.0,0.0,59,0.00,,,0.00,Weather View 32 v70,2013-02-07 08:35:00,
2013-02-07 03:40:00,21.0,11.1,30.36,NW,315,0.0,0.0,65,0.00,,,0.00,Weather View 32 v70,2013-02-07 08:40:00,
2013-02-07 03:46:00,20.0,9.1,30.36,SW,225,0.0,0.0,62,0.00,,,0.00,Weather View 32 v70,2013-02-07 08:46:00,
2013-02-07 03:51:00,20.0,5.6,30.37,SSW,202,0.0,0.0,53,0.00,,,0.00,Weather View 32 v70,2013-02-07 08:51:00,
2013-02-07 03:56:00,20.0,6.0,30.37,WSW,248,0.0,0.0,54,0.00,,,0.00,Weather View 32 v70,2013-02-07 08:56:00,
2013-02-07 04:01:00,20.0,6.0,30.38,West,270,0.0,0.0,54,0.00,,,0.00,Weather View 32 v70,2013-02-07 09:01:00,
2013-02-07 04:06:00,20.0,6.4,30.37,WNW,292,0.0,0.0,55,0.00,,,0.00,Weather View 32 v70,2013-02-07 09:06:00,
2013-02-07 04:11:00,20.0,8.0,30.37,ENE,68,0.0,0.0,59,0.00,,,0.00,Weather View 32 v70,2013-02-07 09:11:00,
2013-02-07 04:16:00,19.0,9.9,30.38,ENE,68,0.0,0.0,67,0.00,,,0.00,Weather View 32 v70,2013-02-07 09:16:00,
2013-02-07 04:21:00,19.0,7.0,30.38,ENE,68,0.0,0.0,59,0.00,,,0.00,Weather View 32 v70,2013-02-07 09:21:00,
2013-02-07 04:26:00,19.0,10.5,30.38,ENE,68,0.0,0.0,69,0.00,,,0.00,Weather View 32 v70,2013-02-07 09:26:00,
2013-02-07 04:31:00,19.0,7.4,30.38,ENE,68,0.0,0.0,60,0.00,,,0.00,Weather View 32 v70,2013-02-07 09:31:00,
2013-02-07 04:36:00,19.0,10.2,30.38,ENE,68,0.0,0.0,68,0.00,,,0.00,Weather View 32 v70,2013-02-07 09:36:00,
2013-02-07 04:41:00,18.0,9.6,30.38,ENE,68,0.0,0.0,69,0.00,,,0.00,Weather View 32 v70,2013-02-07 09:41:00,
2013-02-07 04:46:00,18.0,6.1,30.39,ENE,68,0.0,0.0,59,0.00,,,0.00,Weather View 32 v70,2013-02-07 09:46:00,
2013-02-07 04:51:00,18.0,6.5,30.39,SW,225,0.0,0.0,60,0.00,,,0.00,Weather View 32 v70,2013-02-07 09:51:00,
2013-02-07 04:56:00,18.0,9.9,30.39,SW,225,0.0,0.0,70,0.00,,,0.00,Weather View 32 v70,2013-02-07 09:56:00,
2013-02-07 05:01:00,18.0,10.2,30.39,West,270,0.0,0.0,71,0.00,,,0.00,Weather View 32 v70,2013-02-07 10:01:00,
2013-02-07 05:06:00,18.0,8.9,30.39,West,270,0.0,0.0,67,0.00,,,0.00,Weather View 32 v70,2013-02-07 10:06:00,
2013-02-07 05:11:00,18.0,12.0,30.39,West,270,0.0,0.0,77,0.00,,,0.00,Weather View 32 v70,2013-02-07 10:11:00,
2013-02-07 05:16:00,17.0,9.8,30.39,West,270,0.0,0.0,73,0.00,,,0.00,Weather View 32 v70,2013-02-07 10:16:00,
2013-02-07 05:21:00,17.0,6.2,30.39,West,270,0.0,0.0,62,0.00,,,0.00,Weather View 32 v70,2013-02-07 10:21:00,
2013-02-07 05:26:00,17.0,8.6,30.40,West,270,0.0,0.0,69,0.00,,,0.00,Weather View 32 v70,2013-02-07 10:26:00,
2013-02-07 05:31:00,17.0,8.9,30.41,SW,225,0.0,0.0,70,0.00,,,0.00,Weather View 32 v70,2013-02-07 10:31:00,
2013-02-07 05:36:00,17.0,6.6,30.41,SW,225,0.0,0.0,63,0.00,,,0.00,Weather View 32 v70,2013-02-07 10:36:00,
2013-02-07 05:41:00,17.0,6.6,30.40,WSW,248,0.0,0.0,63,0.00,,,0.00,Weather View 32 v70,2013-02-07 10:41:00,
2013-02-07 05:46:00,17.0,7.3,30.40,SW,225,0.0,0.0,65,0.00,,,0.00,Weather View 32 v70,2013-02-07 10:46:00,
2013-02-07 05:51:00,17.0,7.6,30.40,SW,225,0.0,0.0,66,0.00,,,0.00,Weather View 32 v70,2013-02-07 10:51:00,
2013-02-07 05:56:00,17.0,9.8,30.40,East,90,0.0,0.0,73,0.00,,,0.00,Weather View 32 v70,2013-02-07 10:56:00,
2013-02-07 06:01:00,17.0,6.9,30.40,ESE,112,0.0,0.0,64,0.00,,,0.00,Weather View 32 v70,2013-02-07 11:01:00,
2013-02-07 06:06:00,17.0,7.3,30.40,SSW,202,0.0,0.0,65,0.00,,,0.00,Weather View 32 v70,2013-02-07 11:06:00,
2013-02-07 06:11:00,17.0,7.6,30.41,South,180,0.0,0.0,66,0.00,,,0.00,Weather View 32 v70,2013-02-07 11:11:00,
2013-02-07 06:16:00,16.0,6.7,30.42,SW,225,0.0,0.0,66,0.00,,,0.00,Weather View 32 v70,2013-02-07 11:16:00,
2013-02-07 06:21:00,16.0,6.7,30.42,SW,225,0.0,0.0,66,0.00,,,0.00,Weather View 32 v70,2013-02-07 11:21:00,
2013-02-07 06:26:00,16.0,6.7,30.42,NW,315,0.0,0.0,66,0.00,,,0.00,Weather View 32 v70,2013-02-07 11:26:00,
2013-02-07 06:31:00,16.0,6.7,30.42,WNW,292,0.0,0.0,66,0.00,,,0.00,Weather View 32 v70,2013-02-07 11:31:00,
2013-02-07 06:36:00,16.0,10.4,30.42,WNW,292,0.0,0.0,78,0.00,,,0.00,Weather View 32 v70,2013-02-07 11:36:00,
2013-02-07 06:41:00,16.0,7.3,30.43,WNW,292,0.0,0.0,68,0.00,,,0.00,Weather View 32 v70,2013-02-07 11:41:00,
2013-02-07 06:46:00,16.0,8.3,30.43,SW,225,0.0,0.0,71,0.00,,,0.00,Weather View 32 v70,2013-02-07 11:46:00,
2013-02-07 06:51:00,16.0,7.3,30.43,West,270,0.0,0.0,68,0.00,,,0.00,Weather View 32 v70,2013-02-07 11:51:00,
2013-02-07 06:56:00,16.0,7.3,30.44,West,270,0.0,0.0,68,0.00,,,0.00,Weather View 32 v70,2013-02-07 11:56:00,
2013-02-07 07:01:00,16.0,7.3,30.43,West,270,0.0,0.0,68,0.00,,,0.00,Weather View 32 v70,2013-02-07 12:01:00,
2013-02-07 07:06:00,16.0,7.3,30.43,NNW,338,0.0,0.0,68,0.00,,,0.00,Weather View 32 v70,2013-02-07 12:06:00,
2013-02-07 07:11:00,16.0,7.3,30.44,NNW,338,0.0,0.0,68,0.00,,,0.00,Weather View 32 v70,2013-02-07 12:11:00,
2013-02-07 07:16:00,16.0,10.1,30.44,SSW,202,0.0,0.0,77,0.00,,,0.00,Weather View 32 v70,2013-02-07 12:16:00,
2013-02-07 07:21:00,16.0,7.6,30.45,SSW,202,0.0,0.0,69,0.00,,,0.00,Weather View 32 v70,2013-02-07 12:21:00,
2013-02-07 07:26:00,17.0,11.0,30.46,WSW,248,0.0,0.0,77,0.00,,,0.00,Weather View 32 v70,2013-02-07 12:26:00,
2013-02-07 07:31:00,17.0,8.6,30.46,SW,225,0.0,0.0,69,0.00,,,0.00,Weather View 32 v70,2013-02-07 12:31:00,
2013-02-07 07:36:00,17.0,9.8,30.46,SW,225,0.0,0.0,73,0.00,,,0.00,Weather View 32 v70,2013-02-07 12:36:00,
2013-02-07 07:41:00,17.0,10.7,30.47,WNW,292,0.0,0.0,76,0.00,,,0.00,Weather View 32 v70,2013-02-07 12:41:00,
2013-02-07 07:46:00,18.0,9.9,30.47,SW,225,0.0,0.0,70,0.00,,,0.00,Weather View 32 v70,2013-02-07 12:46:00,
2013-02-07 07:51:00,18.0,12.9,30.48,SW,225,0.0,0.0,80,0.00,,,0.00,Weather View 32 v70,2013-02-07 12:51:00,
2013-02-07 07:56:00,19.0,10.5,30.48,NW,315,0.0,0.0,69,0.00,,,0.00,Weather View 32 v70,2013-02-07 12:56:00,
2013-02-07 08:01:00,20.0,14.0,30.48,South,180,0.0,0.0,77,0.00,,,0.00,Weather View 32 v70,2013-02-07 13:01:00,
2013-02-07 08:06:00,21.0,14.6,30.48,WSW,248,0.0,0.0,76,0.00,,,0.00,Weather View 32 v70,2013-02-07 13:06:00,
2013-02-07 08:11:00,22.0,15.0,30.48,WNW,292,0.0,3.0,74,0.00,,,0.00,Weather View 32 v70,2013-02-07 13:11:00,
2013-02-07 08:17:00,22.0,13.4,30.49,NNE,22,2.0,3.0,69,0.00,,,0.00,Weather View 32 v70,2013-02-07 13:17:00,
2013-02-07 08:22:00,23.0,14.0,30.48,NNW,338,2.0,3.0,68,0.00,,,0.00,Weather View 32 v70,2013-02-07 13:22:00,
2013-02-07 08:27:00,23.0,8.8,30.49,WNW,292,2.0,4.0,54,0.00,,,0.00,Weather View 32 v70,2013-02-07 13:27:00,
2013-02-07 08:32:00,23.0,10.8,30.49,North,0,3.0,6.0,59,0.00,,,0.00,Weather View 32 v70,2013-02-07 13:32:00,
2013-02-07 08:37:00,23.0,10.4,30.48,SE,135,0.0,6.0,58,0.00,,,0.00,Weather View 32 v70,2013-02-07 13:37:00,
2013-02-07 08:42:00,23.0,7.1,30.48,NNW,338,1.0,6.0,50,0.00,,,0.00,Weather View 32 v70,2013-02-07 13:42:00,
2013-02-07 08:47:00,24.0,7.1,30.49,NNW,338,2.0,7.0,48,0.00,,,0.00,Weather View 32 v70,2013-02-07 13:47:00,
2013-02-07 08:52:00,24.0,7.1,30.49,WNW,292,0.0,7.0,48,0.00,,,0.00,Weather View 32 v70,2013-02-07 13:52:00,
2013-02-07 08:57:00,24.0,9.3,30.48,NNE,22,4.0,7.0,53,0.00,,,0.00,Weather View 32 v70,2013-02-07 13:57:00,
2013-02-07 09:02:00,24.0,11.4,30.49,WNW,292,2.0,7.0,58,0.00,,,0.00,Weather View 32 v70,2013-02-07 14:02:00,
2013-02-07 09:07:00,24.0,8.0,30.50,North,0,0.0,7.0,50,0.00,,,0.00,Weather View 32 v70,2013-02-07 14:07:00,
2013-02-07 09:12:00,24.0,8.9,30.50,WNW,292,0.0,7.0,52,0.00,,,0.00,Weather View 32 v70,2013-02-07 14:12:00,
2013-02-07 09:17:00,24.0,6.2,30.50,NNW,338,2.0,7.0,46,0.00,,,0.00,Weather View 32 v70,2013-02-07 14:17:00,
2013-02-07 09:22:00,24.0,6.2,30.50,NNW,338,2.0,7.0,46,0.00,,,0.00,Weather View 32 v70,2013-02-07 14:22:00,
2013-02-07 09:27:00,24.0,6.2,30.50,NNW,338,5.0,7.0,46,0.00,,,0.00,Weather View 32 v70,2013-02-07 14:27:00,
2013-02-07 09:32:00,24.0,5.2,30.50,WNW,292,0.0,7.0,44,0.00,,,0.00,Weather View 32 v70,2013-02-07 14:32:00,
2013-02-07 09:37:00,25.0,6.2,30.50,WNW,292,4.0,7.0,44,0.00,,,0.00,Weather View 32 v70,2013-02-07 14:37:00,
2013-02-07 09:42:00,25.0,5.6,30.50,WNW,292,2.0,7.0,43,0.00,,,0.00,Weather View 32 v70,2013-02-07 14:42:00,
2013-02-07 09:47:00,25.0,5.1,30.51,WSW,248,0.0,7.0,42,0.00,,,0.00,Weather View 32 v70,2013-02-07 14:47:00,
2013-02-07 09:52:00,25.0,8.1,30.51,West,270,0.0,7.0,48,0.00,,,0.00,Weather View 32 v70,2013-02-07 14:52:00,
2013-02-07 09:57:00,25.0,4.6,30.51,North,0,2.0,7.0,41,0.00,,,0.00,Weather View 32 v70,2013-02-07 14:57:00,
2013-02-07 10:02:00,25.0,8.1,30.50,NNW,338,2.0,7.0,48,0.00,,,0.00,Weather View 32 v70,2013-02-07 15:02:00,
2013-02-07 10:07:00,26.0,8.5,30.50,NW,315,2.0,7.0,47,0.00,,,0.00,Weather View 32 v70,2013-02-07 15:07:00,
2013-02-07 10:12:00,26.0,5.0,30.51,NNW,338,0.0,7.0,40,0.00,,,0.00,Weather View 32 v70,2013-02-07 15:12:00,
2013-02-07 10:17:00,26.0,6.6,30.51,NW,315,0.0,9.0,43,0.00,,,0.00,Weather View 32 v70,2013-02-07 15:17:00,
2013-02-07 10:22:00,26.0,6.0,30.52,NW,315,2.0,9.0,42,0.00,,,0.00,Weather View 32 v70,2013-02-07 15:22:00,
2013-02-07 10:27:00,26.0,7.1,30.52,NW,315,4.0,9.0,44,0.00,,,0.00,Weather View 32 v70,2013-02-07 15:27:00,
2013-02-07 10:32:00,27.0,5.9,30.52,West,270,2.0,9.0,40,0.00,,,0.00,Weather View 32 v70,2013-02-07 15:32:00,
2013-02-07 10:37:00,27.0,6.4,30.52,NNE,22,4.0,9.0,41,0.00,,,0.00,Weather View 32 v70,2013-02-07 15:37:00,
2013-02-07 10:42:00,28.0,5.7,30.52,NW,315,0.0,9.0,38,0.00,,,0.00,Weather View 32 v70,2013-02-07 15:42:00,
2013-02-07 10:47:00,28.0,5.7,30.51,WNW,292,1.0,9.0,38,0.00,,,0.00,Weather View 32 v70,2013-02-07 15:47:00,
2013-02-07 10:52:00,29.0,4.8,30.51,West,270,0.0,9.0,35,0.00,,,0.00,Weather View 32 v70,2013-02-07 15:52:00,
2013-02-07 10:58:00,29.0,4.8,30.51,North,0,5.0,9.0,35,0.00,,,0.00,Weather View 32 v70,2013-02-07 15:58:00,
2013-02-07 11:03:00,29.0,5.4,30.51,WSW,248,0.0,9.0,36,0.00,,,0.00,Weather View 32 v70,2013-02-07 16:03:00,
2013-02-07 11:08:00,29.0,6.0,30.51,NNW,338,2.0,9.0,37,0.00,,,0.00,Weather View 32 v70,2013-02-07 16:08:00,
2013-02-07 11:13:00,29.0,5.4,30.51,WSW,248,4.0,9.0,36,0.00,,,0.00,Weather View 32 v70,2013-02-07 16:13:00,
2013-02-07 11:18:00,30.0,6.3,30.51,WNW,292,3.0,10.0,36,0.00,,,0.00,Weather View 32 v70,2013-02-07 16:18:00,
2013-02-07 11:23:00,30.0,5.6,30.50,NNW,338,1.0,10.0,35,0.00,,,0.00,Weather View 32 v70,2013-02-07 16:23:00,
2013-02-07 11:28:00,30.0,5.6,30.51,NNW,338,3.0,10.0,35,0.00,,,0.00,Weather View 32 v70,2013-02-07 16:28:00,
2013-02-07 11:33:00,30.0,6.3,30.50,NNW,338,0.0,10.0,36,0.04,,,0.00,Weather View 32 v70,2013-02-07 16:33:00,
2013-02-07 11:38:00,30.0,5.6,30.50,North,0,3.0,10.0,35,0.00,,,0.00,Weather View 32 v70,2013-02-07 16:38:00,
2013-02-07 11:43:00,30.0,6.3,30.49,NNW,338,1.0,10.0,36,0.00,,,0.00,Weather View 32 v70,2013-02-07 16:43:00,
2013-02-07 11:48:00,30.0,7.4,30.49,NNW,338,0.0,10.0,38,0.00,,,0.00,Weather View 32 v70,2013-02-07 16:48:00,
2013-02-07 11:53:00,30.0,6.9,30.49,NW,315,3.0,10.0,37,0.00,,,0.00,Weather View 32 v70,2013-02-07 16:53:00,
2013-02-07 11:58:00,31.0,5.9,30.49,North,0,3.0,10.0,34,0.00,,,0.00,Weather View 32 v70,2013-02-07 16:58:00,
2013-02-07 12:03:00,30.0,7.4,30.49,NE,45,6.0,10.0,38,0.00,,,0.00,Weather View 32 v70,2013-02-07 17:03:00,
2013-02-07 12:08:00,31.0,6.5,30.49,NNW,338,2.0,10.0,35,0.00,,,0.00,Weather View 32 v70,2013-02-07 17:08:00,
2013-02-07 12:13:00,31.0,7.2,30.49,West,270,0.0,10.0,36,0.00,,,0.00,Weather View 32 v70,2013-02-07 17:13:00,
2013-02-07 12:18:00,31.0,7.2,30.48,South,180,0.0,10.0,36,0.00,,,0.00,Weather View 32 v70,2013-02-07 17:18:00,
2013-02-07 12:23:00,31.0,5.9,30.48,NNW,338,4.0,9.0,34,0.00,,,0.00,Weather View 32 v70,2013-02-07 17:23:00,
2013-02-07 12:28:00,32.0,7.4,30.48,WSW,248,0.0,9.0,35,0.00,,,0.00,Weather View 32 v70,2013-02-07 17:28:00,
2013-02-07 12:33:00,32.0,8.0,30.48,SE,135,2.0,9.0,36,0.00,,,0.00,Weather View 32 v70,2013-02-07 17:33:00,
2013-02-07 12:38:00,32.0,6.1,30.48,NNW,338,5.0,8.0,33,0.00,,,0.00,Weather View 32 v70,2013-02-07 17:38:00,
2013-02-07 12:43:00,32.0,6.8,30.47,North,0,3.0,8.0,34,0.00,,,0.00,Weather View 32 v70,2013-02-07 17:43:00,
2013-02-07 12:48:00,31.0,5.9,30.47,NNW,338,2.0,9.0,34,0.00,,,0.00,Weather View 32 v70,2013-02-07 17:48:00,
2013-02-07 12:53:00,31.0,7.8,30.47,North,0,3.0,9.0,37,0.00,,,0.00,Weather View 32 v70,2013-02-07 17:53:00,
2013-02-07 12:58:00,31.0,5.9,30.47,North,0,4.0,9.0,34,0.00,,,0.00,Weather View 32 v70,2013-02-07 17:58:00,
2013-02-07 13:03:00,31.0,7.8,30.47,North,0,3.0,9.0,37,0.00,,,0.00,Weather View 32 v70,2013-02-07 18:03:00,
2013-02-07 13:08:00,31.0,5.9,30.47,WNW,292,2.0,9.0,34,0.00,,,0.00,Weather View 32 v70,2013-02-07 18:08:00,
2013-02-07 13:13:00,31.0,5.2,30.47,NW,315,1.0,9.0,33,0.00,,,0.00,Weather View 32 v70,2013-02-07 18:13:00,
2013-02-07 13:18:00,32.0,8.0,30.46,NE,45,6.0,9.0,36,0.00,,,0.00,Weather View 32 v70,2013-02-07 18:18:00,
2013-02-07 13:23:00,31.0,4.6,30.46,NE,45,1.0,9.0,32,0.00,,,0.00,Weather View 32 v70,2013-02-07 18:23:00,
2013-02-07 13:29:00,31.0,6.5,30.46,NW,315,0.0,9.0,35,0.00,,,0.00,Weather View 32 v70,2013-02-07 18:29:00,
2013-02-07 13:34:00,31.0,7.2,30.46,WNW,292,2.0,9.0,36,0.00,,,0.00,Weather View 32 v70,2013-02-07 18:34:00,
2013-02-07 13:39:00,31.0,6.5,30.46,NW,315,5.0,9.0,35,0.00,,,0.00,Weather View 32 v70,2013-02-07 18:39:00,
2013-02-07 13:44:00,32.0,7.4,30.46,NNW,338,4.0,9.0,35,0.00,,,0.00,Weather View 32 v70,2013-02-07 18:44:00,
2013-02-07 13:49:00,32.0,5.4,30.46,North,0,2.0,7.0,32,0.00,,,0.00,Weather View 32 v70,2013-02-07 18:49:00,
2013-02-07 13:54:00,32.0,5.4,30.46,NNW,338,1.0,7.0,32,0.00,,,0.00,Weather View 32 v70,2013-02-07 18:54:00,
2013-02-07 13:59:00,32.0,6.1,30.45,WNW,292,3.0,7.0,33,0.00,,,0.00,Weather View 32 v70,2013-02-07 18:59:00,
2013-02-07 14:04:00,32.0,5.4,30.45,NW,315,0.0,7.0,32,0.00,,,0.00,Weather View 32 v70,2013-02-07 19:04:00,
2013-02-07 14:09:00,32.0,7.4,30.45,NW,315,0.0,7.0,35,0.00,,,0.00,Weather View 32 v70,2013-02-07 19:09:00,
2013-02-07 14:14:00,32.0,5.4,30.45,SSE,158,0.0,7.0,32,0.00,,,0.00,Weather View 32 v70,2013-02-07 19:14:00,
2013-02-07 14:19:00,32.0,4.8,30.45,ENE,68,3.0,7.0,31,0.00,,,0.00,Weather View 32 v70,2013-02-07 19:19:00,
2013-02-07 14:24:00,32.0,6.1,30.45,ESE,112,0.0,7.0,33,0.00,,,0.00,Weather View 32 v70,2013-02-07 19:24:00,
2013-02-07 14:29:00,32.0,4.8,30.45,East,90,3.0,7.0,31,0.00,,,0.00,Weather View 32 v70,2013-02-07 19:29:00,
2013-02-07 14:34:00,32.0,4.8,30.45,ESE,112,3.0,7.0,31,0.00,,,0.00,Weather View 32 v70,2013-02-07 19:34:00,
2013-02-07 14:39:00,32.0,4.8,30.45,ESE,112,2.0,7.0,31,0.00,,,0.00,Weather View 32 v70,2013-02-07 19:39:00,
2013-02-07 14:44:00,32.0,6.1,30.45,ENE,68,2.0,7.0,33,0.00,,,0.00,Weather View 32 v70,2013-02-07 19:44:00,
2013-02-07 14:49:00,32.0,4.8,30.45,NE,45,0.0,7.0,31,0.00,,,0.00,Weather View 32 v70,2013-02-07 19:49:00,
2013-02-07 14:54:00,32.0,4.8,30.45,NNW,338,0.0,7.0,31,0.00,,,0.00,Weather View 32 v70,2013-02-07 19:54:00,
2013-02-07 14:59:00,33.0,5.6,30.45,ENE,68,2.0,7.0,31,0.00,,,0.00,Weather View 32 v70,2013-02-07 19:59:00,
2013-02-07 15:04:00,33.0,4.9,30.45,NNE,22,0.0,7.0,30,0.00,,,0.00,Weather View 32 v70,2013-02-07 20:04:00,
2013-02-07 15:09:00,33.0,6.3,30.45,NE,45,3.0,7.0,32,0.00,,,0.00,Weather View 32 v70,2013-02-07 20:09:00,
2013-02-07 15:14:00,32.0,5.4,30.45,NW,315,0.0,7.0,32,0.00,,,0.00,Weather View 32 v70,2013-02-07 20:14:00,
2013-02-07 15:19:00,32.0,4.0,30.45,East,90,0.0,7.0,30,0.00,,,0.00,Weather View 32 v70,2013-02-07 20:19:00,
2013-02-07 15:24:00,32.0,4.0,30.45,North,0,0.0,7.0,30,0.00,,,0.00,Weather View 32 v70,2013-02-07 20:24:00,
2013-02-07 15:29:00,32.0,4.8,30.45,NW,315,2.0,7.0,31,0.00,,,0.00,Weather View 32 v70,2013-02-07 20:29:00,
2013-02-07 15:34:00,32.0,4.8,30.45,ENE,68,3.0,7.0,31,0.00,,,0.00,Weather View 32 v70,2013-02-07 20:34:00,
2013-02-07 15:39:00,32.0,4.0,30.45,ESE,112,0.0,7.0,30,0.00,,,0.00,Weather View 32 v70,2013-02-07 20:39:00,
2013-02-07 15:44:00,32.0,4.0,30.45,SE,135,0.0,7.0,30,0.00,,,0.00,Weather View 32 v70,2013-02-07 20:44:00,
2013-02-07 15:49:00,32.0,4.0,30.45,ESE,112,2.0,7.0,30,0.00,,,0.00,Weather View 32 v70,2013-02-07 20:49:00,
2013-02-07 15:54:00,32.0,4.0,30.45,NNE,22,4.0,7.0,30,0.00,,,0.00,Weather View 32 v70,2013-02-07 20:54:00,
2013-02-07 16:00:00,32.0,4.0,30.45,ENE,68,3.0,7.0,30,0.00,,,0.00,Weather View 32 v70,2013-02-07 21:00:00,
2013-02-07 16:05:00,32.0,4.0,30.45,ENE,68,0.0,7.0,30,0.00,,,0.00,Weather View 32 v70,2013-02-07 21:05:00,
2013-02-07 16:10:00,31.0,3.2,30.46,NE,45,0.0,6.0,30,0.00,,,0.00,Weather View 32 v70,2013-02-07 21:10:00,
2013-02-07 16:15:00,31.0,5.2,30.45,ENE,68,0.0,6.0,33,0.00,,,0.00,Weather View 32 v70,2013-02-07 21:15:00,
2013-02-07 16:20:00,31.0,3.9,30.45,NE,45,0.0,6.0,31,0.00,,,0.00,Weather View 32 v70,2013-02-07 21:20:00,
2013-02-07 16:25:00,31.0,3.9,30.45,East,90,0.0,6.0,31,0.00,,,0.00,Weather View 32 v70,2013-02-07 21:25:00,
2013-02-07 16:30:00,31.0,3.9,30.46,NE,45,0.0,6.0,31,0.00,,,0.00,Weather View 32 v70,2013-02-07 21:30:00,
2013-02-07 16:35:00,30.0,3.7,30.46,East,90,0.0,6.0,32,0.00,,,0.00,Weather View 32 v70,2013-02-07 21:35:00,
2013-02-07 16:40:00,30.0,6.3,30.45,ENE,68,0.0,6.0,36,0.00,,,0.00,Weather View 32 v70,2013-02-07 21:40:00,
2013-02-07 16:45:00,30.0,5.6,30.45,East,90,0.0,6.0,35,0.00,,,0.00,Weather View 32 v70,2013-02-07 21:45:00,
2013-02-07 16:50:00,30.0,4.4,30.45,ENE,68,0.0,6.0,33,0.00,,,0.00,Weather View 32 v70,2013-02-07 21:50:00,
2013-02-07 16:55:00,30.0,6.3,30.46,NNW,338,0.0,6.0,36,0.00,,,0.00,Weather View 32 v70,2013-02-07 21:55:00,
2013-02-07 17:00:00,30.0,7.4,30.46,ENE,68,0.0,6.0,38,0.00,,,0.00,Weather View 32 v70,2013-02-07 22:00:00,
2013-02-07 17:05:00,30.0,7.4,30.46,SE,135,0.0,6.0,38,0.00,,,0.00,Weather View 32 v70,2013-02-07 22:05:00,
2013-02-07 17:10:00,29.0,4.1,30.46,NE,45,0.0,6.0,34,0.00,,,0.00,Weather View 32 v70,2013-02-07 22:10:00,
2013-02-07 17:15:00,29.0,4.1,30.46,East,90,0.0,6.0,34,0.00,,,0.00,Weather View 32 v70,2013-02-07 22:15:00,
2013-02-07 17:20:00,29.0,4.1,30.47,ESE,112,0.0,6.0,34,0.00,,,0.00,Weather View 32 v70,2013-02-07 22:20:00,
2013-02-07 17:25:00,29.0,8.2,30.47,ENE,68,0.0,6.0,41,0.00,,,0.00,Weather View 32 v70,2013-02-07 22:25:00,
2013-02-07 17:30:00,29.0,8.8,30.47,SE,135,0.0,6.0,42,0.00,,,0.00,Weather View 32 v70,2013-02-07 22:30:00,
2013-02-07 17:35:00,29.0,4.8,30.47,NE,45,0.0,5.0,35,0.00,,,0.00,Weather View 32 v70,2013-02-07 22:35:00,
2013-02-07 17:40:00,28.0,4.5,30.47,NNE,22,0.0,5.0,36,0.00,,,0.00,Weather View 32 v70,2013-02-07 22:40:00,
2013-02-07 17:45:00,28.0,7.3,30.47,ESE,112,2.0,5.0,41,0.00,,,0.00,Weather View 32 v70,2013-02-07 22:45:00,
2013-02-07 17:50:00,28.0,4.5,30.48,ENE,68,0.0,5.0,36,0.00,,,0.00,Weather View 32 v70,2013-02-07 22:50:00,
2013-02-07 17:55:00,28.0,5.7,30.47,ENE,68,0.0,5.0,38,0.00,,,0.00,Weather View 32 v70,2013-02-07 22:55:00,
2013-02-07 18:00:00,28.0,8.9,30.48,ENE,68,0.0,5.0,44,0.00,,,0.00,Weather View 32 v70,2013-02-07 23:00:00,
2013-02-07 18:05:00,28.0,7.3,30.48,ESE,112,0.0,5.0,41,0.00,,,0.00,Weather View 32 v70,2013-02-07 23:05:00,
2013-02-07 18:10:00,28.0,4.5,30.48,East,90,2.0,5.0,36,0.00,,,0.00,Weather View 32 v70,2013-02-07 23:10:00,
2013-02-07 18:15:00,28.0,4.5,30.48,ENE,68,4.0,5.0,36,0.00,,,0.00,Weather View 32 v70,2013-02-07 23:15:00,
2013-02-07 18:20:00,27.0,3.6,30.48,ENE,68,0.0,5.0,36,0.00,,,0.00,Weather View 32 v70,2013-02-07 23:20:00,
2013-02-07 18:25:00,27.0,3.6,30.48,NE,45,0.0,6.0,36,0.00,,,0.00,Weather View 32 v70,2013-02-07 23:25:00,
2013-02-07 18:30:00,27.0,4.2,30.48,ESE,112,0.0,6.0,37,0.00,,,0.00,Weather View 32 v70,2013-02-07 23:30:00,
2013-02-07 18:35:00,27.0,4.2,30.49,ENE,68,4.0,10.0,37,0.00,,,0.00,Weather View 32 v70,2013-02-07 23:35:00,
2013-02-07 18:40:00,27.0,4.2,30.48,East,90,1.0,10.0,37,0.00,,,0.00,Weather View 32 v70,2013-02-07 23:40:00,
2013-02-07 18:45:00,27.0,6.4,30.49,ENE,68,3.0,10.0,41,0.00,,,0.00,Weather View 32 v70,2013-02-07 23:45:00,
2013-02-07 18:50:00,27.0,7.5,30.49,NE,45,0.0,10.0,43,0.00,,,0.00,Weather View 32 v70,2013-02-07 23:50:00,
2013-02-07 18:55:00,27.0,7.5,30.49,ESE,112,0.0,10.0,43,0.00,,,0.00,Weather View 32 v70,2013-02-07 23:55:00,
2013-02-07 19:00:00,27.0,8.5,30.49,ENE,68,0.0,10.0,45,0.00,,,0.00,Weather View 32 v70,2013-02-08 00:00:00,
2013-02-07 19:05:00,27.0,5.3,30.49,ENE,68,0.0,10.0,39,0.00,,,0.00,Weather View 32 v70,2013-02-08 00:05:00,
2013-02-07 19:10:00,26.0,4.4,30.49,NNW,338,0.0,10.0,39,0.00,,,0.00,Weather View 32 v70,2013-02-08 00:10:00,
2013-02-07 19:15:00,26.0,5.0,30.49,ENE,68,0.0,10.0,40,0.00,,,0.00,Weather View 32 v70,2013-02-08 00:15:00,
2013-02-07 19:20:00,26.0,5.0,30.49,ENE,68,0.0,10.0,40,0.00,,,0.00,Weather View 32 v70,2013-02-08 00:20:00,
2013-02-07 19:25:00,26.0,5.5,30.49,ESE,112,0.0,10.0,41,0.00,,,0.00,Weather View 32 v70,2013-02-08 00:25:00,
2013-02-07 19:30:00,26.0,5.5,30.49,ENE,68,3.0,10.0,41,0.00,,,0.00,Weather View 32 v70,2013-02-08 00:30:00,
2013-02-07 19:35:00,26.0,5.5,30.49,ESE,112,0.0,10.0,41,0.00,,,0.00,Weather View 32 v70,2013-02-08 00:35:00,
2013-02-07 19:40:00,26.0,6.0,30.49,ENE,68,0.0,7.0,42,0.00,,,0.00,Weather View 32 v70,2013-02-08 00:40:00,
2013-02-07 19:45:00,26.0,6.6,30.49,NE,45,3.0,7.0,43,0.00,,,0.00,Weather View 32 v70,2013-02-08 00:45:00,
2013-02-07 19:50:00,26.0,7.1,30.49,ENE,68,2.0,7.0,44,0.00,,,0.00,Weather View 32 v70,2013-02-08 00:50:00,
2013-02-07 19:55:00,26.0,7.1,30.48,ENE,68,3.0,7.0,44,0.00,,,0.00,Weather View 32 v70,2013-02-08 00:55:00,
2013-02-07 20:00:00,26.0,7.6,30.49,ESE,112,0.0,7.0,45,0.00,,,0.00,Weather View 32 v70,2013-02-08 01:00:00,
2013-02-07 20:05:00,26.0,7.6,30.49,ESE,112,3.0,7.0,45,0.00,,,0.00,Weather View 32 v70,2013-02-08 01:05:00,
2013-02-07 20:10:00,26.0,8.0,30.49,NE,45,0.0,7.0,46,0.00,,,0.00,Weather View 32 v70,2013-02-08 01:10:00,
2013-02-07 20:15:00,26.0,8.0,30.48,East,90,0.0,7.0,46,0.00,,,0.00,Weather View 32 v70,2013-02-08 01:15:00,
2013-02-07 20:20:00,26.0,8.5,30.49,ESE,112,4.0,7.0,47,0.00,,,0.00,Weather View 32 v70,2013-02-08 01:20:00,
2013-02-07 20:25:00,26.0,8.5,30.49,East,90,2.0,7.0,47,0.00,,,0.00,Weather View 32 v70,2013-02-08 01:25:00,
2013-02-07 20:30:00,26.0,9.0,30.49,ENE,68,0.0,7.0,48,0.00,,,0.00,Weather View 32 v70,2013-02-08 01:30:00,
2013-02-07 20:35:00,26.0,9.0,30.49,NE,45,0.0,7.0,48,0.00,,,0.00,Weather View 32 v70,2013-02-08 01:35:00,
2013-02-07 20:40:00,26.0,9.0,30.49,ENE,68,0.0,7.0,48,0.00,,,0.00,Weather View 32 v70,2013-02-08 01:40:00,
2013-02-07 20:45:00,26.0,9.4,30.49,ENE,68,0.0,7.0,49,0.00,,,0.00,Weather View 32 v70,2013-02-08 01:45:00,
2013-02-07 20:50:00,26.0,9.4,30.49,ENE,68,3.0,7.0,49,0.00,,,0.00,Weather View 32 v70,2013-02-08 01:50:00,
2013-02-07 20:59:00,26.0,9.9,30.48,ESE,112,0.0,7.0,50,0.00,,,0.00,Weather View 32 v70,2013-02-08 01:59:00,
2013-02-07 21:04:00,26.0,9.9,30.48,ENE,68,2.0,7.0,50,0.00,,,0.00,Weather View 32 v70,2013-02-08 02:04:00,
2013-02-07 21:09:00,26.0,9.9,30.48,ENE,68,5.0,7.0,50,0.00,,,0.00,Weather View 32 v70,2013-02-08 02:09:00,
2013-02-07 21:14:00,26.0,10.3,30.48,East,90,3.0,7.0,51,0.00,,,0.00,Weather View 32 v70,2013-02-08 02:14:00,
2013-02-07 21:19:00,26.0,10.3,30.48,ENE,68,0.0,7.0,51,0.00,,,0.00,Weather View 32 v70,2013-02-08 02:19:00,
2013-02-07 21:24:00,26.0,10.3,30.48,East,90,0.0,7.0,51,0.00,,,0.00,Weather View 32 v70,2013-02-08 02:24:00,
2013-02-07 21:29:00,26.0,10.8,30.49,NE,45,0.0,7.0,52,0.00,,,0.00,Weather View 32 v70,2013-02-08 02:29:00,
2013-02-07 21:34:00,26.0,10.8,30.49,East,90,0.0,7.0,52,0.00,,,0.00,Weather View 32 v70,2013-02-08 02:34:00,
2013-02-07 21:39:00,26.0,10.8,30.48,East,90,0.0,7.0,52,0.00,,,0.00,Weather View 32 v70,2013-02-08 02:39:00,
2013-02-07 21:44:00,26.0,10.8,30.48,NNE,22,0.0,7.0,52,0.00,,,0.00,Weather View 32 v70,2013-02-08 02:44:00,
2013-02-07 21:49:00,26.0,10.8,30.48,ENE,68,0.0,7.0,52,0.00,,,0.00,Weather View 32 v70,2013-02-08 02:49:00,
2013-02-07 21:54:00,26.0,10.8,30.48,ENE,68,0.0,7.0,52,0.00,,,0.00,Weather View 32 v70,2013-02-08 02:54:00,
2013-02-07 21:59:00,26.0,11.2,30.48,East,90,0.0,7.0,53,0.00,,,0.00,Weather View 32 v70,2013-02-08 02:59:00,
2013-02-07 22:04:00,26.0,11.2,30.48,East,90,0.0,7.0,53,0.00,,,0.00,Weather View 32 v70,2013-02-08 03:04:00,
2013-02-07 22:09:00,26.0,11.2,30.48,NE,45,0.0,7.0,53,0.00,,,0.00,Weather View 32 v70,2013-02-08 03:09:00,
2013-02-07 22:14:00,26.0,11.6,30.48,North,0,0.0,5.0,54,0.00,,,0.00,Weather View 32 v70,2013-02-08 03:14:00,
2013-02-07 22:19:00,26.0,11.6,30.48,East,90,0.0,4.0,54,0.00,,,0.00,Weather View 32 v70,2013-02-08 03:19:00,
2013-02-07 22:24:00,26.0,11.6,30.48,NE,45,0.0,0.0,54,0.00,,,0.00,Weather View 32 v70,2013-02-08 03:24:00,
2013-02-07 22:29:00,26.0,11.6,30.48,SE,135,0.0,0.0,54,0.00,,,0.00,Weather View 32 v70,2013-02-08 03:29:00,
2013-02-07 22:34:00,26.0,12.0,30.48,East,90,0.0,0.0,55,0.00,,,0.00,Weather View 32 v70,2013-02-08 03:34:00,
2013-02-07 22:39:00,26.0,12.4,30.48,NE,45,0.0,0.0,56,0.00,,,0.00,Weather View 32 v70,2013-02-08 03:39:00,
2013-02-07 22:44:00,26.0,15.1,30.48,NE,45,0.0,0.0,63,0.00,,,0.00,Weather View 32 v70,2013-02-08 03:44:00,
2013-02-07 22:49:00,26.0,16.5,30.48,ENE,68,0.0,0.0,67,0.00,,,0.00,Weather View 32 v70,2013-02-08 03:49:00,
2013-02-07 22:54:00,26.0,14.4,30.48,ESE,112,0.0,0.0,61,0.00,,,0.00,Weather View 32 v70,2013-02-08 03:54:00,
2013-02-07 22:59:00,26.0,12.8,30.48,ENE,68,0.0,0.0,57,0.00,,,0.00,Weather View 32 v70,2013-02-08 03:59:00,
2013-02-07 23:04:00,26.0,15.8,30.48,NNW,338,0.0,0.0,65,0.00,,,0.00,Weather View 32 v70,2013-02-08 04:04:00,
2013-02-07 23:09:00,26.0,16.9,30.48,NNW,338,0.0,0.0,68,0.00,,,0.00,Weather View 32 v70,2013-02-08 04:09:00,
2013-02-07 23:14:00,25.0,14.9,30.47,NNW,338,0.0,0.0,65,0.00,,,0.00,Weather View 32 v70,2013-02-08 04:14:00,
2013-02-07 23:19:00,25.0,13.4,30.48,SW,225,0.0,0.0,61,0.00,,,0.00,Weather View 32 v70,2013-02-08 04:19:00,
2013-02-07 23:24:00,25.0,12.7,30.48,WSW,248,0.0,0.0,59,0.00,,,0.00,Weather View 32 v70,2013-02-08 04:24:00,
2013-02-07 23:29:00,25.0,12.7,30.47,NNE,22,0.0,0.0,59,0.00,,,0.00,Weather View 32 v70,2013-02-08 04:29:00,
2013-02-07 23:34:00,25.0,15.6,30.47,NE,45,0.0,0.0,67,0.00,,,0.00,Weather View 32 v70,2013-02-08 04:34:00,
2013-02-07 23:39:00,25.0,16.6,30.47,North,0,0.0,0.0,70,0.00,,,0.00,Weather View 32 v70,2013-02-08 04:39:00,
2013-02-07 23:44:00,25.0,13.8,30.47,NE,45,0.0,0.0,62,0.00,,,0.00,Weather View 32 v70,2013-02-08 04:44:00,
2013-02-07 23:49:00,24.0,12.9,30.47,NW,315,0.0,0.0,62,0.00,,,0.00,Weather View 32 v70,2013-02-08 04:49:00,
2013-02-07 23:54:00,24.0,13.6,30.46,WNW,292,0.0,0.0,64,0.00,,,0.00,Weather View 32 v70,2013-02-08 04:54:00,
2013-02-07 23:59:00,24.0,14.3,30.47,WNW,292,0.0,0.0,66,0.00,,,0.00,Weather View 32 v70,2013-02-08 04:59:00,